User: anonymous   Login
Location: Banios
(43.0451°N, 0.2335°E)
Time: 19:16:04
(UTC+00:00)
Language:

CZ-2C R/B - Orbit

View from above orbital plane
View from above orbital plane
View from above satellite
View from above satellite

Ground track
Ground track

The orbit data is extracted from the following two-line orbital elements,

1 31114U 07010B   21110.52496591  .00000027  00000-0  30946-4 0  9999
2 31114  98.2362 308.3018 0060936  91.7581 269.0578 14.19356707726566
Epoch (UTC): 20 April 2021 12:35:57
Eccentricity: 0.0060936
inclination: 98.2362°
perigee height: 783 km
apogee height: 871 km
right ascension of ascending node: 308.3018°
argument of perigee: 91.7581°
revolutions per day: 14.19356707
mean anomaly at epoch: 269.0578°
orbit number at epoch: 72656

The dashed part of the orbit path shows where the satellite is in the earth's shadow,  

DLR